Regional Weather Roundup
Issued by NWS

Home | Current Version | Previous Version | Graphics & Text | Print | Product List | Glossary On
Versions: 1 2 3 4 5 6 7 8 9 10 11 12 13 14 15 16 17 18 19 20 21 22 23 24 25 26 27 28 29 30 31 32 33 34 35 36 37 38 39 40 41 42 43 44 45 46 47 48 49 50
000
ASUS43 KTOP 300208
RWRKS

WEATHER ROUNDUP FOR KANSAS
NATIONAL WEATHER SERVICE GOODLAND KS
900 PM CDT WED OCT 29 2014

NOTE:  "FAIR" INDICATES FEW OR NO CLOUDS BELOW 12,000 FEET WITH NO
SIGNIFICANT WEATHER AND/OR OBSTRUCTIONS TO VISIBILITY.

KSZ001>006-013>018-027>032-041>047-300300-
NORTHWEST KANSAS

CITY           SKY/WX    TMP DP  RH WIND       PRES   REMARKS
GOODLAND       PTCLDY    61  25  25 SW17      30.04F
HAYS           CLEAR     57  37  47 S12       30.01S
HILL CITY      CLEAR     49  35  58 SW3       30.00F
RUSSELL        CLEAR     56  37  49 S12       30.00F
$$

KSZ061>065-074>080-084>089-300300-
SOUTHWEST KANSAS

CITY           SKY/WX    TMP DP  RH WIND       PRES   REMARKS
DODGE CITY     CLEAR     55  38  52 S12       30.07R
ELKHART          N/A     58  35  42 S8          N/A
GARDEN CITY    CLEAR     54  39  57 S5        30.05R
GREAT BEND     CLEAR     55  32  41 S12       30.05S
LIBERAL        CLEAR     54  36  50 S8        30.08S
PRATT          CLEAR     59  28  31 S12       30.09S
$$

KSZ066>073-081>083-090>101-300300-
SOUTHEAST KANSAS

CITY           SKY/WX    TMP DP  RH WIND       PRES   REMARKS
CHANUTE        CLEAR     51  39  63 SE7       30.12S
COFFEYVILLE    CLEAR     53  42  66 SE3       30.13R
HUTCHINSON     CLEAR     54  34  46 S9        30.07F
MEDICINE LODGE   N/A     58  31  35 S7        30.08S
NEWTON         CLEAR     54  30  40 S9        30.10F
PARSONS        CLEAR     56  42  59 SE5       30.13F
WICHITA INTL   CLEAR     54  32  43 S10       30.09S
WICHITA JABRA  CLEAR     55  33  43 S9        30.09S
WICHITA MCCONL CLEAR     53  31  43 S10       30.10S
WINFIELD       CLEAR     53  36  52 S6        30.12S
$$

KSZ007>012-019>026-033>040-048>060-102>105-300300-
NORTHEAST KANSAS

CITY           SKY/WX    TMP DP  RH WIND       PRES   REMARKS
CONCORDIA      CLEAR     57  39  51 S13       30.01F
EMPORIA        CLEAR     52  37  56 S9        30.10S
LAWRENCE       CLEAR     45  37  73 SE6       30.11F
MANHATTAN      CLEAR     54  37  52 VRB3      30.06F
MARYSVILLE     CLEAR     50  34  53 SE8       30.04F
OLATHE IND     CLEAR     51  34  52 SE8       30.12F
OLATHE EXE     CLEAR     50  34  54 SE5       30.11F
SALINA         CLEAR     54  37  52 S9        30.04F
TOPEKA BILLARD CLEAR     51  37  58 SE3       30.10F
TOPEKA FORBES  CLEAR     49  37  63 SE7       30.09F
$$



USA.gov is the U.S. government's official web portal to all federal, state and local government web resources and services.